Location: Menands
(42.6920°N, 73.7246°W)
Time: 21:27:23
(UTC+00:00)

Cosmos 1862 - Pass Details

Date: 18 February 2026
Orbit: 468 x 481 km, 82.5° (Epoch: 8 March)

Event Time Altitude Azimuth Distance (km) Brightness Sun altitude
Rises 23:35:32 0° 180° (S) 2,506 6.7 -12.6°
Reaches altitude 10° 23:37:37 10° 177° (S) 1,631 5.7 -12.9°
Maximum altitude 23:41:08 63° 96° (E) 532 2.9 -13.6°
Drops below altitude 10° 23:44:41 10° 15° (NNE) 1,638 5.6 -14.2°
Sets 23:46:47 0° 12° (NNE) 2,518 6.6 -14.6°
